Location: Alvis C Story Elementary School
(33.0968°N, 96.6364°W)
Time: 19:05:03
(UTC+00:00)

Cosmos 1602 - Pass Details

Date: 05 July 2022
Orbit: 508 x 526 km, 82.5° (Epoch: 17 August)

Event Time Altitude Azimuth Distance (km) Brightness Sun altitude
Exits shadow 09:45:57 18° 288° (WNW) 1,299 5.4 -17.4°
Drops below altitude 10° 09:48:21 10° 328° (NNW) 1,730 6.5 -17.0°
Sets 09:51:01 0° 348° (NNW) 2,622 7.7 -16.6°
